owner,sensor,date,latitude,longitude,vertical_datum,sea_water_practical_salinity,qcFlag 
TABS,ioos:station:wmo:42048:1,2013-10-01T00:00:00Z,27.9396,-96.8429,2.0,27.5514,11111222 
TABS,ioos:station:wmo:42048:1,2013-10-01T00:30:00Z,27.9396,-96.8429,2.0,27.5216,11111222 
TABS,ioos:station:wmo:42048:1,2013-10-01T01:00:00Z,27.9396,-96.8429,2.0,27.4697,11111222 
TABS,ioos:station:wmo:42048:1,2013-10-01T01:30:00Z,27.9396,-96.8429,2.0,27.5048,11111222 
TABS,ioos:station:wmo:42048:1,2013-10-01T02:00:00Z,27.9396,-96.8429,2.0,27.5486,11111222 
TABS,ioos:station:wmo:42048:1,2013-10-01T02:30:00Z,27.9396,-96.8429,2.0,27.5242,11111222 
TABS,ioos:station:wmo:42048:1,2013-10-01T03:00:00Z,27.9396,-96.8429,2.0,27.5625,11111222 
TABS,ioos:station:wmo:42048:1,2013-10-01T03:30:00Z,27.9396,-96.8429,2.0,27.5832,11111222 
TABS,ioos:station:wmo:42048:1,2013-10-01T04:00:00Z,27.9396,-96.8429,2.0,27.5651,11111222 
TABS,ioos:station:wmo:42048:1,2013-10-01T04:30:00Z,27.9396,-96.8429,2.0,27.5959,11111222 
TABS,ioos:station:wmo:42048:1,2013-10-01T05:00:00Z,27.9396,-96.8429,2.0,27.5698,11111222 
TABS,ioos:station:wmo:42048:1,2013-10-01T05:30:00Z,27.9396,-96.8429,2.0,27.5974,11111222 
TABS,ioos:station:wmo:42048:1,2013-10-01T06:00:00Z,27.9396,-96.8429,2.0,27.596,11111222 
TABS,ioos:station:wmo:42048:1,2013-10-01T06:30:00Z,27.9396,-96.8429,2.0,27.6231,11111222 
TABS,ioos:station:wmo:42048:1,2013-10-01T07:00:00Z,27.9396,-96.8429,2.0,27.6272,11111222 
TABS,ioos:station:wmo:42048:1,2013-10-01T07:30:00Z,27.9396,-96.8429,2.0,27.6616,11111222 
TABS,ioos:station:wmo:42048:1,2013-10-01T08:00:00Z,27.9396,-96.8429,2.0,27.6724,11111222 
TABS,ioos:station:wmo:42048:1,2013-10-01T08:30:00Z,27.9396,-96.8429,2.0,27.72,11111222 
TABS,ioos:station:wmo:42048:1,2013-10-01T09:00:00Z,27.9396,-96.8429,2.0,27.795,11111222 
TABS,ioos:station:wmo:42048:1,2013-10-01T09:30:00Z,27.9396,-96.8429,2.0,27.8613,11111222 
TABS,ioos:station:wmo:42048:1,2013-10-01T10:00:00Z,27.9396,-96.8429,2.0,27.8993,11111222 
TABS,ioos:station:wmo:42048:1,2013-10-01T10:30:00Z,27.9396,-96.8429,2.0,27.9324,11111222 
TABS,ioos:station:wmo:42048:1,2013-10-01T11:00:00Z,27.9396,-96.8429,2.0,27.9517,11111222 
TABS,ioos:station:wmo:42048:1,2013-10-01T11:30:00Z,27.9396,-96.8429,2.0,27.9719,11111222 
TABS,ioos:station:wmo:42048:1,2013-10-01T12:00:00Z,27.9396,-96.8429,2.0,27.7123,11111222 
TABS,ioos:station:wmo:42048:1,2013-10-01T12:30:00Z,27.9396,-96.8429,2.0,27.9521,11111222 
TABS,ioos:station:wmo:42048:1,2013-10-01T13:00:00Z,27.9396,-96.8429,2.0,27.9653,11111222 
TABS,ioos:station:wmo:42048:1,2013-10-01T13:30:00Z,27.9396,-96.8429,2.0,27.9795,11111222 
TABS,ioos:station:wmo:42048:1,2013-10-01T14:00:00Z,27.9396,-96.8429,2.0,27.9851,11111222 
TABS,ioos:station:wmo:42048:1,2013-10-01T14:30:00Z,27.9396,-96.8429,2.0,27.9841,11111222 
TABS,ioos:station:wmo:42048:1,2013-10-01T15:00:00Z,27.9396,-96.8429,2.0,27.9986,11111222 
TABS,ioos:station:wmo:42048:1,2013-10-01T15:30:00Z,27.9396,-96.8429,2.0,28.0207,11111222 
TABS,ioos:station:wmo:42048:1,2013-10-01T16:00:00Z,27.9396,-96.8429,2.0,28.0287,11111222 
TABS,ioos:station:wmo:42048:1,2013-10-01T16:30:00Z,27.9396,-96.8429,2.0,28.0259,11111222 
TABS,ioos:station:wmo:42048:1,2013-10-01T17:00:00Z,27.9396,-96.8429,2.0,28.0241,11111222 
TABS,ioos:station:wmo:42048:1,2013-10-01T17:30:00Z,27.9396,-96.8429,2.0,28.0129,11111222 
TABS,ioos:station:wmo:42048:1,2013-10-01T18:00:00Z,27.9396,-96.8429,2.0,27.9956,11111222 
TABS,ioos:station:wmo:42048:1,2013-10-01T18:30:00Z,27.9396,-96.8429,2.0,27.9906,11111222 
TABS,ioos:station:wmo:42048:1,2013-10-01T19:00:00Z,27.9396,-96.8429,2.0,27.9954,11111222 
TABS,ioos:station:wmo:42048:1,2013-10-01T19:30:00Z,27.9396,-96.8429,2.0,28.0092,11111222 
TABS,ioos:station:wmo:42048:1,2013-10-01T20:00:00Z,27.9396,-96.8429,2.0,28.0183,11111222 
TABS,ioos:station:wmo:42048:1,2013-10-01T20:30:00Z,27.9396,-96.8429,2.0,28.0271,11111222 
TABS,ioos:station:wmo:42048:1,2013-10-01T21:00:00Z,27.9396,-96.8429,2.0,28.0262,11111222 
TABS,ioos:station:wmo:42048:1,2013-10-01T21:30:00Z,27.9396,-96.8429,2.0,28.0343,11111222 
TABS,ioos:station:wmo:42048:1,2013-10-01T22:00:00Z,27.9396,-96.8429,2.0,28.0358,11111222 
TABS,ioos:station:wmo:42048:1,2013-10-01T22:30:00Z,27.9396,-96.8429,2.0,28.0403,11111222 
TABS,ioos:station:wmo:42048:1,2013-10-01T23:00:00Z,27.9396,-96.8429,2.0,28.0419,11111222 
TABS,ioos:station:wmo:42048:1,2013-10-01T23:30:00Z,27.9396,-96.8429,2.0,28.0444,11111222 
TABS,ioos:station:wmo:42048:1,2013-10-02T00:00:00Z,27.9396,-96.8429,2.0,28.0494,11111222 
TABS,ioos:station:wmo:42048:1,2013-10-02T00:30:00Z,27.9396,-96.8429,2.0,28.0522,11111222 
TABS,ioos:station:wmo:42048:1,2013-10-02T01:00:00Z,27.9396,-96.8429,2.0,28.0544,11111222 
TABS,ioos:station:wmo:42048:1,2013-10-02T01:30:00Z,27.9396,-96.8429,2.0,28.0474,11111222 
TABS,ioos:station:wmo:42048:1,2013-10-02T02:00:00Z,27.9396,-96.8429,2.0,28.041,11111222 
TABS,ioos:station:wmo:42048:1,2013-10-02T02:30:00Z,27.9396,-96.8429,2.0,28.05,11111222 
TABS,ioos:station:wmo:42048:1,2013-10-02T03:00:00Z,27.9396,-96.8429,2.0,28.0692,11111222 
TABS,ioos:station:wmo:42048:1,2013-10-02T03:30:00Z,27.9396,-96.8429,2.0,28.0603,11111222 
TABS,ioos:station:wmo:42048:1,2013-10-02T04:00:00Z,27.9396,-96.8429,2.0,28.0477,11111222 
TABS,ioos:station:wmo:42048:1,2013-10-02T04:30:00Z,27.9396,-96.8429,2.0,28.0405,11111222 
TABS,ioos:station:wmo:42048:1,2013-10-02T05:00:00Z,27.9396,-96.8429,2.0,28.0257,11111222 
TABS,ioos:station:wmo:42048:1,2013-10-02T05:30:00Z,27.9396,-96.8429,2.0,28.016,11111222 
TABS,ioos:station:wmo:42048:1,2013-10-02T06:00:00Z,27.9396,-96.8429,2.0,28.0027,11111222 
TABS,ioos:station:wmo:42048:1,2013-10-02T06:30:00Z,27.9396,-96.8429,2.0,27.9928,11111222 
TABS,ioos:station:wmo:42048:1,2013-10-02T07:00:00Z,27.9396,-96.8429,2.0,27.9848,11111222 
TABS,ioos:station:wmo:42048:1,2013-10-02T07:30:00Z,27.9396,-96.8429,2.0,27.9791,11111222 
TABS,ioos:station:wmo:42048:1,2013-10-02T08:00:00Z,27.9396,-96.8429,2.0,27.964,11111222 
TABS,ioos:station:wmo:42048:1,2013-10-02T08:30:00Z,27.9396,-96.8429,2.0,27.9666,11111222 
TABS,ioos:station:wmo:42048:1,2013-10-02T09:00:00Z,27.9396,-96.8429,2.0,27.9766,11111222 
TABS,ioos:station:wmo:42048:1,2013-10-02T09:30:00Z,27.9396,-96.8429,2.0,27.9675,11111222 
TABS,ioos:station:wmo:42048:1,2013-10-02T10:00:00Z,27.9396,-96.8429,2.0,27.9667,11111222 
TABS,ioos:station:wmo:42048:1,2013-10-02T10:30:00Z,27.9396,-96.8429,2.0,27.9691,11111222 
TABS,ioos:station:wmo:42048:1,2013-10-02T11:00:00Z,27.9396,-96.8429,2.0,27.9807,11111222 
TABS,ioos:station:wmo:42048:1,2013-10-02T11:30:00Z,27.9396,-96.8429,2.0,27.9896,11111222 
TABS,ioos:station:wmo:42048:1,2013-10-02T12:00:00Z,27.9396,-96.8429,2.0,28.0001,11111222 
TABS,ioos:station:wmo:42048:1,2013-10-02T12:30:00Z,27.9396,-96.8429,2.0,28.011,11111222 
TABS,ioos:station:wmo:42048:1,2013-10-02T13:00:00Z,27.9396,-96.8429,2.0,28.0323,11111222 
TABS,ioos:station:wmo:42048:1,2013-10-02T13:30:00Z,27.9396,-96.8429,2.0,28.0421,11111222 
TABS,ioos:station:wmo:42048:1,2013-10-02T14:00:00Z,27.9396,-96.8429,2.0,28.0346,11111222 
TABS,ioos:station:wmo:42048:1,2013-10-02T14:30:00Z,27.9396,-96.8429,2.0,28.0568,11111222 
TABS,ioos:station:wmo:42048:1,2013-10-02T15:00:00Z,27.9396,-96.8429,2.0,28.0617,11111222 
TABS,ioos:station:wmo:42048:1,2013-10-02T15:30:00Z,27.9396,-96.8429,2.0,28.0882,11111222 
TABS,ioos:station:wmo:42048:1,2013-10-02T16:00:00Z,27.9396,-96.8429,2.0,28.0918,11111222 
TABS,ioos:station:wmo:42048:1,2013-10-02T16:30:00Z,27.9396,-96.8429,2.0,28.1092,11111222 
TABS,ioos:station:wmo:42048:1,2013-10-02T17:00:00Z,27.9396,-96.8429,2.0,28.1199,11111222 
TABS,ioos:station:wmo:42048:1,2013-10-02T17:30:00Z,27.9396,-96.8429,2.0,28.1398,11111222 
TABS,ioos:station:wmo:42048:1,2013-10-02T18:00:00Z,27.9396,-96.8429,2.0,28.1787,11111222 
TABS,ioos:station:wmo:42048:1,2013-10-02T18:30:00Z,27.9396,-96.8429,2.0,28.1835,11111222 
TABS,ioos:station:wmo:42048:1,2013-10-02T19:00:00Z,27.9396,-96.8429,2.0,28.1445,11111222 
TABS,ioos:station:wmo:42048:1,2013-10-02T19:30:00Z,27.9396,-96.8429,2.0,28.0992,11111222 
TABS,ioos:station:wmo:42048:1,2013-10-02T20:00:00Z,27.9396,-96.8429,2.0,28.0911,11111222 
TABS,ioos:station:wmo:42048:1,2013-10-02T20:30:00Z,27.9396,-96.8429,2.0,28.0734,11111222 
TABS,ioos:station:wmo:42048:1,2013-10-02T21:00:00Z,27.9396,-96.8429,2.0,28.0618,11111222 
TABS,ioos:station:wmo:42048:1,2013-10-02T21:30:00Z,27.9396,-96.8429,2.0,28.0177,11111222 
TABS,ioos:station:wmo:42048:1,2013-10-02T22:00:00Z,27.9396,-96.8429,2.0,27.9546,11111222 
TABS,ioos:station:wmo:42048:1,2013-10-02T22:30:00Z,27.9396,-96.8429,2.0,27.8895,11111222 
TABS,ioos:station:wmo:42048:1,2013-10-02T23:00:00Z,27.9396,-96.8429,2.0,27.7363,11111222 
TABS,ioos:station:wmo:42048:1,2013-10-02T23:30:00Z,27.9396,-96.8429,2.0,27.623,11111222 
TABS,ioos:station:wmo:42048:1,2013-10-03T00:00:00Z,27.9396,-96.8429,2.0,27.5307,11111222 
TABS,ioos:station:wmo:42048:1,2013-10-03T00:30:00Z,27.9396,-96.8429,2.0,27.4686,11111222 
TABS,ioos:station:wmo:42048:1,2013-10-03T01:00:00Z,27.9396,-96.8429,2.0,27.3669,11111222 
TABS,ioos:station:wmo:42048:1,2013-10-03T01:30:00Z,27.9396,-96.8429,2.0,27.2925,11111222 
TABS,ioos:station:wmo:42048:1,2013-10-03T02:00:00Z,27.9396,-96.8429,2.0,27.2648,11111222 
TABS,ioos:station:wmo:42048:1,2013-10-03T02:30:00Z,27.9396,-96.8429,2.0,27.2719,11111222 
TABS,ioos:station:wmo:42048:1,2013-10-03T03:00:00Z,27.9396,-96.8429,2.0,27.2973,11111222 
TABS,ioos:station:wmo:42048:1,2013-10-03T03:30:00Z,27.9396,-96.8429,2.0,27.4118,11111222 
TABS,ioos:station:wmo:42048:1,2013-10-03T04:00:00Z,27.9396,-96.8429,2.0,27.5155,11111222 
TABS,ioos:station:wmo:42048:1,2013-10-03T04:30:00Z,27.9396,-96.8429,2.0,27.5666,11111222 
TABS,ioos:station:wmo:42048:1,2013-10-03T05:00:00Z,27.9396,-96.8429,2.0,27.6758,11111222 
TABS,ioos:station:wmo:42048:1,2013-10-03T05:30:00Z,27.9396,-96.8429,2.0,27.7936,11111222 
TABS,ioos:station:wmo:42048:1,2013-10-03T06:00:00Z,27.9396,-96.8429,2.0,27.8753,11111222 
TABS,ioos:station:wmo:42048:1,2013-10-03T06:30:00Z,27.9396,-96.8429,2.0,27.946,11111222 
TABS,ioos:station:wmo:42048:1,2013-10-03T07:00:00Z,27.9396,-96.8429,2.0,27.9699,11111222 
TABS,ioos:station:wmo:42048:1,2013-10-03T07:30:00Z,27.9396,-96.8429,2.0,28.0912,11111222 
TABS,ioos:station:wmo:42048:1,2013-10-03T08:00:00Z,27.9396,-96.8429,2.0,28.0939,11111222 
TABS,ioos:station:wmo:42048:1,2013-10-03T08:30:00Z,27.9396,-96.8429,2.0,28.0913,11111222 
TABS,ioos:station:wmo:42048:1,2013-10-03T09:00:00Z,27.9396,-96.8429,2.0,28.1515,11111222 
TABS,ioos:station:wmo:42048:1,2013-10-03T09:30:00Z,27.9396,-96.8429,2.0,28.4867,11111222 
TABS,ioos:station:wmo:42048:1,2013-10-03T10:00:00Z,27.9396,-96.8429,2.0,28.5109,11111222 
TABS,ioos:station:wmo:42048:1,2013-10-03T10:30:00Z,27.9396,-96.8429,2.0,28.5522,11111222 
TABS,ioos:station:wmo:42048:1,2013-10-03T11:00:00Z,27.9396,-96.8429,2.0,28.1177,11111222 
TABS,ioos:station:wmo:42048:1,2013-10-03T11:30:00Z,27.9396,-96.8429,2.0,28.0798,11111222 
TABS,ioos:station:wmo:42048:1,2013-10-03T12:00:00Z,27.9396,-96.8429,2.0,28.0586,11111222 
TABS,ioos:station:wmo:42048:1,2013-10-03T12:30:00Z,27.9396,-96.8429,2.0,28.0479,11111222 
TABS,ioos:station:wmo:42048:1,2013-10-03T13:00:00Z,27.9396,-96.8429,2.0,28.0917,11111222 
TABS,ioos:station:wmo:42048:1,2013-10-03T13:30:00Z,27.9396,-96.8429,2.0,28.1237,11111222 
TABS,ioos:station:wmo:42048:1,2013-10-03T14:00:00Z,27.9396,-96.8429,2.0,28.1358,11111222 
TABS,ioos:station:wmo:42048:1,2013-10-03T14:30:00Z,27.9396,-96.8429,2.0,28.1764,11111222 
TABS,ioos:station:wmo:42048:1,2013-10-03T15:00:00Z,27.9396,-96.8429,2.0,28.1933,11111222 
TABS,ioos:station:wmo:42048:1,2013-10-03T15:30:00Z,27.9396,-96.8429,2.0,28.1769,11111222 
TABS,ioos:station:wmo:42048:1,2013-10-03T16:00:00Z,27.9396,-96.8429,2.0,28.1689,11111222 
TABS,ioos:station:wmo:42048:1,2013-10-03T16:30:00Z,27.9396,-96.8429,2.0,28.1439,11111222 
TABS,ioos:station:wmo:42048:1,2013-10-03T17:00:00Z,27.9396,-96.8429,2.0,28.138,11111222 
TABS,ioos:station:wmo:42048:1,2013-10-03T17:30:00Z,27.9396,-96.8429,2.0,28.1537,11111222 
TABS,ioos:station:wmo:42048:1,2013-10-03T18:00:00Z,27.9396,-96.8429,2.0,28.1662,11111222 
TABS,ioos:station:wmo:42048:1,2013-10-03T18:30:00Z,27.9396,-96.8429,2.0,28.157,11111222 
TABS,ioos:station:wmo:42048:1,2013-10-03T19:00:00Z,27.9396,-96.8429,2.0,28.1713,11111222 
TABS,ioos:station:wmo:42048:1,2013-10-03T19:30:00Z,27.9396,-96.8429,2.0,28.1981,11111222 
TABS,ioos:station:wmo:42048:1,2013-10-03T20:00:00Z,27.9396,-96.8429,2.0,28.2591,11111222 
TABS,ioos:station:wmo:42048:1,2013-10-03T20:30:00Z,27.9396,-96.8429,2.0,28.3476,11111222 
TABS,ioos:station:wmo:42048:1,2013-10-03T21:00:00Z,27.9396,-96.8429,2.0,28.3087,11111222 
TABS,ioos:station:wmo:42048:1,2013-10-03T21:30:00Z,27.9396,-96.8429,2.0,28.2496,11111222 
TABS,ioos:station:wmo:42048:1,2013-10-03T22:00:00Z,27.9396,-96.8429,2.0,28.2488,11111222 
TABS,ioos:station:wmo:42048:1,2013-10-03T22:30:00Z,27.9396,-96.8429,2.0,28.2496,11111222 
TABS,ioos:station:wmo:42048:1,2013-10-03T23:00:00Z,27.9396,-96.8429,2.0,28.2812,11111222 
TABS,ioos:station:wmo:42048:1,2013-10-03T23:30:00Z,27.9396,-96.8429,2.0,28.2645,11111222 
TABS,ioos:station:wmo:42048:1,2013-10-04T00:00:00Z,27.9396,-96.8429,2.0,28.361,11111222 
TABS,ioos:station:wmo:42048:1,2013-10-04T00:30:00Z,27.9396,-96.8429,2.0,28.4164,11111222 
TABS,ioos:station:wmo:42048:1,2013-10-04T01:00:00Z,27.9396,-96.8429,2.0,28.4847,11111222 
TABS,ioos:station:wmo:42048:1,2013-10-04T01:30:00Z,27.9396,-96.8429,2.0,28.5286,11111222 
TABS,ioos:station:wmo:42048:1,2013-10-04T02:00:00Z,27.9396,-96.8429,2.0,28.5623,11111222 
TABS,ioos:station:wmo:42048:1,2013-10-04T02:30:00Z,27.9396,-96.8429,2.0,28.6045,11111222 
TABS,ioos:station:wmo:42048:1,2013-10-04T03:00:00Z,27.9396,-96.8429,2.0,28.6253,11111222 
TABS,ioos:station:wmo:42048:1,2013-10-04T03:30:00Z,27.9396,-96.8429,2.0,28.637,11111222 
TABS,ioos:station:wmo:42048:1,2013-10-04T04:00:00Z,27.9396,-96.8429,2.0,28.6131,11111222 
TABS,ioos:station:wmo:42048:1,2013-10-04T04:30:00Z,27.9396,-96.8429,2.0,28.5919,11111222 
TABS,ioos:station:wmo:42048:1,2013-10-04T05:00:00Z,27.9396,-96.8429,2.0,28.6141,11111222 
TABS,ioos:station:wmo:42048:1,2013-10-04T05:30:00Z,27.9396,-96.8429,2.0,28.5248,11111222 
TABS,ioos:station:wmo:42048:1,2013-10-04T06:00:00Z,27.9396,-96.8429,2.0,28.4048,11111222 
TABS,ioos:station:wmo:42048:1,2013-10-04T06:30:00Z,27.9396,-96.8429,2.0,28.413,11111222 
TABS,ioos:station:wmo:42048:1,2013-10-04T07:00:00Z,27.9396,-96.8429,2.0,28.419,11111222 
TABS,ioos:station:wmo:42048:1,2013-10-04T07:30:00Z,27.9396,-96.8429,2.0,28.4377,11111222 
TABS,ioos:station:wmo:42048:1,2013-10-04T08:00:00Z,27.9396,-96.8429,2.0,28.4564,11111222 
TABS,ioos:station:wmo:42048:1,2013-10-04T08:30:00Z,27.9396,-96.8429,2.0,28.4726,11111222 
TABS,ioos:station:wmo:42048:1,2013-10-04T09:00:00Z,27.9396,-96.8429,2.0,28.4864,11111222 
TABS,ioos:station:wmo:42048:1,2013-10-04T09:30:00Z,27.9396,-96.8429,2.0,28.4823,11111222 
TABS,ioos:station:wmo:42048:1,2013-10-04T10:00:00Z,27.9396,-96.8429,2.0,28.4805,11111222 
TABS,ioos:station:wmo:42048:1,2013-10-04T10:30:00Z,27.9396,-96.8429,2.0,28.4881,11111222 
TABS,ioos:station:wmo:42048:1,2013-10-04T11:00:00Z,27.9396,-96.8429,2.0,28.4967,11111222 
TABS,ioos:station:wmo:42048:1,2013-10-04T11:30:00Z,27.9396,-96.8429,2.0,28.4907,11111222 
TABS,ioos:station:wmo:42048:1,2013-10-04T12:00:00Z,27.9396,-96.8429,2.0,28.4946,11111222 
TABS,ioos:station:wmo:42048:1,2013-10-04T12:30:00Z,27.9396,-96.8429,2.0,28.5005,11111222 
TABS,ioos:station:wmo:42048:1,2013-10-04T13:00:00Z,27.9396,-96.8429,2.0,28.5089,11111222 
TABS,ioos:station:wmo:42048:1,2013-10-04T13:30:00Z,27.9396,-96.8429,2.0,28.5168,11111222 
TABS,ioos:station:wmo:42048:1,2013-10-04T14:00:00Z,27.9396,-96.8429,2.0,28.524,11111222 
TABS,ioos:station:wmo:42048:1,2013-10-04T14:30:00Z,27.9396,-96.8429,2.0,28.4265,11111222 
TABS,ioos:station:wmo:42048:1,2013-10-04T15:00:00Z,27.9396,-96.8429,2.0,28.4298,11111222 
TABS,ioos:station:wmo:42048:1,2013-10-04T15:30:00Z,27.9396,-96.8429,2.0,28.2296,11111222 
TABS,ioos:station:wmo:42048:1,2013-10-04T16:00:00Z,27.9396,-96.8429,2.0,28.0898,11111222 
TABS,ioos:station:wmo:42048:1,2013-10-04T16:30:00Z,27.9396,-96.8429,2.0,27.9889,11111222 
TABS,ioos:station:wmo:42048:1,2013-10-04T17:00:00Z,27.9396,-96.8429,2.0,27.9651,11111222 
TABS,ioos:station:wmo:42048:1,2013-10-04T17:30:00Z,27.9396,-96.8429,2.0,27.9779,11111222 
TABS,ioos:station:wmo:42048:1,2013-10-04T18:00:00Z,27.9396,-96.8429,2.0,27.9792,11111222 
TABS,ioos:station:wmo:42048:1,2013-10-04T18:30:00Z,27.9396,-96.8429,2.0,28.0153,11111222 
TABS,ioos:station:wmo:42048:1,2013-10-04T19:00:00Z,27.9396,-96.8429,2.0,28.0268,11111222 
TABS,ioos:station:wmo:42048:1,2013-10-04T19:30:00Z,27.9396,-96.8429,2.0,28.041,11111222 
TABS,ioos:station:wmo:42048:1,2013-10-04T20:00:00Z,27.9396,-96.8429,2.0,28.0511,11111222 
TABS,ioos:station:wmo:42048:1,2013-10-04T20:30:00Z,27.9396,-96.8429,2.0,28.0706,11111222 
TABS,ioos:station:wmo:42048:1,2013-10-04T21:00:00Z,27.9396,-96.8429,2.0,28.076,11111222 
TABS,ioos:station:wmo:42048:1,2013-10-04T21:30:00Z,27.9396,-96.8429,2.0,28.0832,11111222 
TABS,ioos:station:wmo:42048:1,2013-10-04T22:00:00Z,27.9396,-96.8429,2.0,28.1063,11111222 
TABS,ioos:station:wmo:42048:1,2013-10-04T22:30:00Z,27.9396,-96.8429,2.0,28.1716,11111222 
TABS,ioos:station:wmo:42048:1,2013-10-04T23:00:00Z,27.9396,-96.8429,2.0,28.1889,11111222 
TABS,ioos:station:wmo:42048:1,2013-10-04T23:30:00Z,27.9396,-96.8429,2.0,28.2288,11111222 
TABS,ioos:station:wmo:42048:1,2013-10-05T00:00:00Z,27.9396,-96.8429,2.0,28.2531,11111222 
TABS,ioos:station:wmo:42048:1,2013-10-05T00:30:00Z,27.9396,-96.8429,2.0,28.2906,11111222 
TABS,ioos:station:wmo:42048:1,2013-10-05T01:00:00Z,27.9396,-96.8429,2.0,28.3073,11111222 
TABS,ioos:station:wmo:42048:1,2013-10-05T01:30:00Z,27.9396,-96.8429,2.0,28.3116,11111222 
TABS,ioos:station:wmo:42048:1,2013-10-05T02:00:00Z,27.9396,-96.8429,2.0,28.3215,11111222 
TABS,ioos:station:wmo:42048:1,2013-10-05T02:30:00Z,27.9396,-96.8429,2.0,28.3255,11111222 
TABS,ioos:station:wmo:42048:1,2013-10-05T03:00:00Z,27.9396,-96.8429,2.0,28.3532,11111222 
TABS,ioos:station:wmo:42048:1,2013-10-05T03:30:00Z,27.9396,-96.8429,2.0,28.372,11111222 
TABS,ioos:station:wmo:42048:1,2013-10-05T04:00:00Z,27.9396,-96.8429,2.0,28.3797,11111222 
TABS,ioos:station:wmo:42048:1,2013-10-05T04:30:00Z,27.9396,-96.8429,2.0,28.3818,11111222 
TABS,ioos:station:wmo:42048:1,2013-10-05T05:00:00Z,27.9396,-96.8429,2.0,28.3618,11111222 
TABS,ioos:station:wmo:42048:1,2013-10-05T05:30:00Z,27.9396,-96.8429,2.0,28.3471,11111222 
TABS,ioos:station:wmo:42048:1,2013-10-05T06:00:00Z,27.9396,-96.8429,2.0,28.3371,11111222 
TABS,ioos:station:wmo:42048:1,2013-10-05T06:30:00Z,27.9396,-96.8429,2.0,28.3335,11111222 
TABS,ioos:station:wmo:42048:1,2013-10-05T07:00:00Z,27.9396,-96.8429,2.0,28.3303,11111222 
TABS,ioos:station:wmo:42048:1,2013-10-05T07:30:00Z,27.9396,-96.8429,2.0,28.3314,11111222 
TABS,ioos:station:wmo:42048:1,2013-10-05T08:00:00Z,27.9396,-96.8429,2.0,28.3319,11111222 
TABS,ioos:station:wmo:42048:1,2013-10-05T08:30:00Z,27.9396,-96.8429,2.0,28.3333,11111222 
TABS,ioos:station:wmo:42048:1,2013-10-05T09:00:00Z,27.9396,-96.8429,2.0,28.3318,11111222 
TABS,ioos:station:wmo:42048:1,2013-10-05T09:30:00Z,27.9396,-96.8429,2.0,28.3319,11111222 
TABS,ioos:station:wmo:42048:1,2013-10-05T10:00:00Z,27.9396,-96.8429,2.0,28.3387,11111222 
TABS,ioos:station:wmo:42048:1,2013-10-05T10:30:00Z,27.9396,-96.8429,2.0,28.3411,11111222 
TABS,ioos:station:wmo:42048:1,2013-10-05T11:00:00Z,27.9396,-96.8429,2.0,28.3242,11111222 
TABS,ioos:station:wmo:42048:1,2013-10-05T11:30:00Z,27.9396,-96.8429,2.0,28.2514,11111222 
TABS,ioos:station:wmo:42048:1,2013-10-05T12:00:00Z,27.9396,-96.8429,2.0,27.8743,11111222 
TABS,ioos:station:wmo:42048:1,2013-10-05T12:30:00Z,27.9396,-96.8429,2.0,27.7674,11111222 
TABS,ioos:station:wmo:42048:1,2013-10-05T13:00:00Z,27.9396,-96.8429,2.0,27.6751,11111222 
TABS,ioos:station:wmo:42048:1,2013-10-05T13:30:00Z,27.9396,-96.8429,2.0,27.6688,11111222 
TABS,ioos:station:wmo:42048:1,2013-10-05T14:00:00Z,27.9396,-96.8429,2.0,27.6397,11111222 
TABS,ioos:station:wmo:42048:1,2013-10-05T14:30:00Z,27.9396,-96.8429,2.0,27.6591,11111222 
TABS,ioos:station:wmo:42048:1,2013-10-05T15:00:00Z,27.9396,-96.8429,2.0,27.7087,11111222 
TABS,ioos:station:wmo:42048:1,2013-10-05T15:30:00Z,27.9396,-96.8429,2.0,27.8386,11111222 
TABS,ioos:station:wmo:42048:1,2013-10-05T16:00:00Z,27.9396,-96.8429,2.0,27.9141,11111222 
TABS,ioos:station:wmo:42048:1,2013-10-05T16:30:00Z,27.9396,-96.8429,2.0,28.0071,11111222 
TABS,ioos:station:wmo:42048:1,2013-10-05T17:00:00Z,27.9396,-96.8429,2.0,27.9381,11111222 
TABS,ioos:station:wmo:42048:1,2013-10-05T17:30:00Z,27.9396,-96.8429,2.0,27.9103,11111222 
TABS,ioos:station:wmo:42048:1,2013-10-05T18:00:00Z,27.9396,-96.8429,2.0,27.6859,11111222 
TABS,ioos:station:wmo:42048:1,2013-10-05T18:30:00Z,27.9396,-96.8429,2.0,27.6196,11111222 
TABS,ioos:station:wmo:42048:1,2013-10-05T19:00:00Z,27.9396,-96.8429,2.0,27.5832,11111222 
TABS,ioos:station:wmo:42048:1,2013-10-05T19:30:00Z,27.9396,-96.8429,2.0,27.5259,11111222 
TABS,ioos:station:wmo:42048:1,2013-10-05T20:00:00Z,27.9396,-96.8429,2.0,27.5548,11111222 
TABS,ioos:station:wmo:42048:1,2013-10-05T20:30:00Z,27.9396,-96.8429,2.0,27.5457,11111222 
TABS,ioos:station:wmo:42048:1,2013-10-05T21:00:00Z,27.9396,-96.8429,2.0,27.5694,11111222 
TABS,ioos:station:wmo:42048:1,2013-10-05T21:30:00Z,27.9396,-96.8429,2.0,27.5564,11111222 
TABS,ioos:station:wmo:42048:1,2013-10-05T22:00:00Z,27.9396,-96.8429,2.0,27.5616,11111222 
TABS,ioos:station:wmo:42048:1,2013-10-05T22:30:00Z,27.9396,-96.8429,2.0,27.5774,11111222 
TABS,ioos:station:wmo:42048:1,2013-10-05T23:00:00Z,27.9396,-96.8429,2.0,27.6018,11111222 
TABS,ioos:station:wmo:42048:1,2013-10-05T23:30:00Z,27.9396,-96.8429,2.0,27.6035,11111222 
TABS,ioos:station:wmo:42048:1,2013-10-06T00:00:00Z,27.9396,-96.8429,2.0,27.6226,11111222 
TABS,ioos:station:wmo:42048:1,2013-10-06T00:30:00Z,27.9396,-96.8429,2.0,27.6066,11111222 
TABS,ioos:station:wmo:42048:1,2013-10-06T10:30:00Z,27.9396,-96.8429,2.0,28.0562,11111222 
TABS,ioos:station:wmo:42048:1,2013-10-06T11:00:00Z,27.9396,-96.8429,2.0,28.0977,11111222 
TABS,ioos:station:wmo:42048:1,2013-10-06T11:30:00Z,27.9396,-96.8429,2.0,28.1157,11111222 
TABS,ioos:station:wmo:42048:1,2013-10-06T12:00:00Z,27.9396,-96.8429,2.0,28.2344,11111222 
TABS,ioos:station:wmo:42048:1,2013-10-06T12:30:00Z,27.9396,-96.8429,2.0,28.3547,11111222 
TABS,ioos:station:wmo:42048:1,2013-10-06T13:00:00Z,27.9396,-96.8429,2.0,28.5421,11111222 
TABS,ioos:station:wmo:42048:1,2013-10-06T13:30:00Z,27.9396,-96.8429,2.0,28.5443,11111222 
TABS,ioos:station:wmo:42048:1,2013-10-06T14:00:00Z,27.9396,-96.8429,2.0,28.5231,11111222 
TABS,ioos:station:wmo:42048:1,2013-10-06T14:30:00Z,27.9396,-96.8429,2.0,28.5124,11111222 
TABS,ioos:station:wmo:42048:1,2013-10-06T15:00:00Z,27.9396,-96.8429,2.0,28.48,11111222 
TABS,ioos:station:wmo:42048:1,2013-10-06T15:30:00Z,27.9396,-96.8429,2.0,28.4454,11111222 
TABS,ioos:station:wmo:42048:1,2013-10-06T16:00:00Z,27.9396,-96.8429,2.0,28.4246,11111222 
TABS,ioos:station:wmo:42048:1,2013-10-06T16:30:00Z,27.9396,-96.8429,2.0,28.4271,11111222 
TABS,ioos:station:wmo:42048:1,2013-10-06T17:00:00Z,27.9396,-96.8429,2.0,28.4249,11111222 
TABS,ioos:station:wmo:42048:1,2013-10-06T17:30:00Z,27.9396,-96.8429,2.0,28.4212,11111222 
TABS,ioos:station:wmo:42048:1,2013-10-06T18:00:00Z,27.9396,-96.8429,2.0,28.3963,11111222 
TABS,ioos:station:wmo:42048:1,2013-10-06T18:30:00Z,27.9396,-96.8429,2.0,28.3591,11111222 
TABS,ioos:station:wmo:42048:1,2013-10-06T19:00:00Z,27.9396,-96.8429,2.0,28.338,11111222 
TABS,ioos:station:wmo:42048:1,2013-10-06T19:30:00Z,27.9396,-96.8429,2.0,28.3222,11111222 
TABS,ioos:station:wmo:42048:1,2013-10-06T20:00:00Z,27.9396,-96.8429,2.0,28.2873,11111222 
TABS,ioos:station:wmo:42048:1,2013-10-06T20:30:00Z,27.9396,-96.8429,2.0,28.2264,11111222 
TABS,ioos:station:wmo:42048:1,2013-10-06T21:30:00Z,27.9396,-96.8429,2.0,28.1598,11111222 
TABS,ioos:station:wmo:42048:1,2013-10-06T22:00:00Z,27.9396,-96.8429,2.0,28.1629,11111222 